Temp
-4 -4 -4 -5 -5 -6 -6 -6 -6 -6 -6 -6 -6 -6 -6 -8 -8 -7 -7 -7 -6 -6 -6 -6 -6 -6 -5
-6 -5 -5 -5 -6 -6 -6 -6 -7 -7 -7 -7 -7 -7 -8 -8 -8 -8 -8 -8 -8 -7 -7 -7 -7 -7 -6
-8 -7 -7 -6 -6 -7 -7 -7 -8 -8 -8 -8 -8 -8 -8 -9 -9 -9 -9 -10 -9 -9 -8 -8 -8 -8 -7
-9 -9 -9 -8 -9 -9 -8 -8 -8 -8 -9 -9 -9 -9 -9 -9 -10 -10 -9 -9 -8 -8 -9 -9 -9 -8 -8
-10 -10 -10 -11 -11 -11 -11 -11 -10 -10 -10 -9 -9 -9 -9 -10 -10 -9 -9 -9 -9 -10 -10 -9 -9 -8 -8
-11 -11 -11 -11 -12 -12 -12 -12 -12 -11 -11 -10 -11 -10 -10 -9 -10 -10 -10 -11 -11 -10 -10 -9 -9 -9 -8
-12 -12 -12 -12 -13 -13 -13 -13 -13 -12 -12 -12 -11 -11 -11 -11 -11 -11 -10 -11 -11 -11 -10 -10 -9 -9 -9
-12 -12 -12 -13 -13 -14 -13 -13 -12 -12 -12 -13 -12 -12 -12 -11 -12 -11 -12 -12 -11 -11 -11 -10 -10 -10 -10
-13 -13 -13 -13 -13 -13 -13 -13 -13 -13 -13 -13 -13 -13 -13 -12 -12 -13 -13 -12 -12 -11 -11 -11 -11 -10 -10
-13 -13 -14 -13 -13 -13 -13 -13 -14 -14 -14 -14 -14 -14 -14 -13 -13 -13 -13 -13 -13 -12 -12 -12 -12 -12 -12
-13 -13 -13 -13 -13 -13 -13 -13 -13 -13 -13 -14 -14 -14 -14 -14 -13 -13 -13 -13 -13 -13 -13 -13 -12 -13 -12
-13 -13 -13 -13 -13 -13 -13 -13 -13 -14 -14 -14 -14 -14 -14 -14 -14 -13 -14 -14 -14 -14 -13 -13 -13 -13 -13
-13 -13 -13 -13 -14 -14 -14 -14 -14 -14 -14 -14 -14 -14 -14 -14 -14 -14 -14 -14 -14 -15 -14 -14 -14 -14 -13
-13 -13 -13 -14 -14 -14 -14 -15 -15 -15 -14 -14 -14 -15 -15 -14 -15 -15 -15 -16 -15 -15 -15 -14 -14 -14 -14
-14 -14 -14 -14 -14 -15 -15 -15 -16 -15 -15 -15 -15 -15 -15 -16 -16 -16 -15 -15 -15 -15 -15 -15 -15 -15 -15
-15 -14 -15 -15 -15 -16 -15 -16 -16 -16 -16 -16 -16 -16 -16 -15 -16 -16 -16 -16 -15 -15 -16 -17 -16 -15 -14
-17 -16 -16 -16 -16 -16 -16 -16 -16 -16 -16 -16 -16 -17 -17 -18 -16 -17 -18 -17 -17 -17 -17 -17 -16 -15 -14
Height
1540 1542 1542 1542 1542 1541 1540 1540 1539 1539 1539 1538 1538 1537 1537 1537 1538 1538 1537 1538 1538 1538 1536 1536 1535 1535 1535
1532 1535 1535 1536 1534 1533 1533 1532 1532 1532 1532 1532 1532 1531 1531 1531 1532 1531 1530 1530 1530 1530 1530 1529 1528 1528 1527
1525 1528 1528 1529 1527 1526 1527 1526 1525 1525 1525 1525 1525 1525 1524 1525 1525 1525 1523 1520 1521 1521 1521 1521 1520 1519 1519
1519 1520 1521 1522 1521 1520 1519 1519 1518 1518 1518 1518 1518 1518 1517 1517 1517 1516 1514 1513 1513 1512 1513 1513 1512 1512 1511
1512 1513 1513 1514 1515 1515 1512 1512 1511 1512 1510 1510 1510 1510 1511 1511 1510 1509 1508 1506 1505 1505 1506 1506 1505 1505 1504
1506 1505 1505 1506 1508 1507 1507 1506 1504 1505 1503 1502 1503 1502 1503 1502 1501 1500 1499 1499 1498 1499 1498 1498 1497 1497 1496
1498 1498 1498 1498 1499 1500 1500 1499 1499 1499 1499 1492 1496 1492 1492 1492 1493 1492 1491 1491 1490 1490 1489 1489 1489 1488 1486
1491 1490 1489 1490 1492 1493 1493 1491 1489 1489 1491 1484 1487 1484 1483 1482 1484 1484 1483 1483 1482 1481 1480 1479 1479 1478 1476
1481 1482 1483 1485 1485 1485 1483 1482 1478 1480 1482 1480 1478 1476 1476 1474 1472 1472 1473 1472 1471 1471 1470 1469 1468 1467 1464
1471 1472 1474 1474 1476 1476 1476 1473 1473 1470 1475 1475 1472 1471 1466 1464 1463 1462 1462 1461 1460 1460 1460 1459 1458 1457 1454
1461 1461 1462 1463 1464 1466 1467 1468 1465 1462 1466 1468 1465 1463 1462 1455 1455 1454 1453 1451 1450 1450 1450 1449 1448 1448 1444
1450 1449 1449 1451 1453 1455 1457 1457 1457 1455 1456 1458 1456 1456 1454 1449 1446 1445 1443 1441 1440 1438 1437 1435 1433 1432 1431
1440 1439 1440 1442 1444 1444 1445 1446 1447 1447 1448 1448 1448 1447 1446 1441 1437 1434 1433 1431 1430 1427 1424 1422 1418 1416 1411
1431 1432 1434 1434 1434 1435 1437 1438 1439 1437 1437 1437 1437 1437 1434 1432 1430 1425 1424 1421 1418 1416 1412 1407 1403 1399 1395
1420 1422 1423 1424 1424 1426 1428 1429 1429 1427 1426 1427 1428 1427 1425 1423 1419 1417 1413 1408 1405 1401 1398 1390 1386 1384 1381
1412 1414 1414 1415 1417 1418 1419 1419 1419 1418 1417 1418 1418 1417 1414 1409 1411 1405 1401 1396 1391 1387 1384 1378 1368 1368 1366
1403 1405 1407 1408 1409 1410 1409 1410 1409 1409 1409 1409 1408 1407 1401 1393 1393 1397 1389 1383 1379 1372 1369 1364 1356 1351 1350
Wind_Speed
28 28 29 29 28 28 28 28 27 26 25 25 25 25 23 20 17 17 18 18 18 19 21 22 23 22 22
31 31 32 31 32 32 31 30 29 26 25 25 24 24 23 22 18 19 19 19 20 21 24 24 25 23 23
33 33 34 33 34 34 32 31 29 28 26 26 25 24 23 18 18 21 23 23 24 26 27 27 26 25 24
33 34 34 33 32 34 35 32 32 30 29 28 26 26 25 23 22 25 26 28 29 27 24 24 25 25 26
32 32 32 31 31 31 33 32 33 30 29 28 26 24 22 22 26 29 32 31 28 25 24 25 26 27 28
30 31 32 32 31 31 30 28 29 26 24 26 27 33 35 33 30 26 26 24 24 25 27 28 29 29 30
35 35 33 29 25 23 24 24 28 31 35 43 35 35 32 31 30 28 27 27 26 27 28 29 31 32 33
37 38 35 33 33 35 37 39 37 31 28 38 35 37 31 28 26 29 29 30 32 32 32 32 34 35 37
32 31 32 31 29 28 29 32 37 30 23 24 27 32 37 40 39 33 29 28 28 29 30 31 32 34 37
38 34 30 32 30 29 29 28 31 36 35 28 28 27 33 35 30 27 32 30 28 28 27 26 29 34 38
36 35 34 32 29 28 28 31 34 36 36 24 28 31 32 38 35 32 30 30 31 34 35 39 40 38 42
39 40 39 38 32 27 29 29 32 36 34 24 29 30 32 36 37 36 31 30 33 43 46 48 48 49 46
38 30 27 30 30 32 33 28 27 29 31 33 35 35 33 35 34 38 39 43 43 43 46 49 52 53 53
42 42 40 35 30 25 29 31 32 39 38 33 29 30 32 36 38 43 42 41 45 46 50 55 55 52 49
34 37 35 34 34 32 31 32 33 34 32 31 28 29 33 37 40 41 47 51 52 52 49 51 52 50 47
34 36 34 35 34 34 31 31 31 30 31 32 33 35 39 45 40 44 47 48 51 48 46 45 53 52 50
34 35 34 30 26 26 28 26 28 30 31 33 36 37 40 42 52 40 40 43 44 48 49 48 53 56 54
Wind_Direction
289 293 294 298 299 298 297 294 292 290 290 286 283 283 284 286 292 281 281 285 288 281 284 286 291 292 291
290 292 293 295 297 296 295 293 292 290 287 284 283 282 279 281 278 277 282 280 275 277 278 283 290 286 286
288 291 292 293 293 291 290 288 287 287 286 283 281 279 277 275 273 277 279 288 285 279 278 281 283 283 283
283 287 289 292 290 292 291 287 285 282 282 282 281 277 276 275 271 271 283 289 289 288 284 281 280 283 284
280 284 286 288 289 292 290 291 286 285 285 282 279 277 273 273 277 280 283 285 283 284 284 283 282 281 282
281 281 285 288 288 286 284 284 288 292 290 288 288 289 288 285 287 287 288 286 283 280 281 283 282 280 279
277 277 277 273 271 270 270 272 275 281 288 288 290 287 288 289 288 285 284 284 283 281 281 280 279 278 278
253 258 262 266 268 274 279 283 283 279 278 276 284 284 287 285 285 287 286 283 282 282 281 280 280 280 280
262 263 265 269 271 274 271 270 276 280 279 277 282 286 286 289 294 292 284 281 281 281 280 280 281 282 279
272 267 259 254 251 251 261 268 275 279 276 276 280 282 284 286 288 287 294 287 282 281 279 276 282 284 282
266 269 271 266 258 252 256 261 266 269 276 273 275 279 275 285 289 289 285 285 282 284 283 284 286 286 286
261 259 261 261 265 259 266 265 268 273 276 276 277 276 282 285 285 289 283 280 279 285 290 292 290 288 284
254 258 259 263 270 270 278 268 262 263 268 278 281 278 278 274 273 277 285 284 287 287 291 291 291 292 292
258 259 262 257 253 247 264 274 276 282 283 275 265 268 275 275 280 284 287 285 290 289 291 292 291 290 286
256 254 255 262 272 275 274 277 271 275 272 269 270 271 276 279 283 285 288 290 292 294 293 289 288 285 281
244 252 255 260 263 270 273 269 266 266 268 270 271 279 282 280 280 285 288 288 293 293 288 279 284 289 290
260 262 266 267 262 258 262 262 264 268 271 273 278 282 284 279 291 287 280 285 285 285 284 280 281 290 289